Weather in Tsqaltubo

Georgia     42˚19′39″N   42˚36′09″E
temp.,
°C
wind,
m/s
gust,
m/s
humid.,
%
clouds,
%
prec.,
mm/h
press.,
hPa
HPBL,
m
3 december, thu
thu301:00+10˚e355197 0.0 1026119
04:00+10˚e5135087 0.0 1026394
07:00+9˚e6135333 0.0 1026356
10:00+11˚e6135122 0.0 1026588
13:00+15˚e9134110 0.0 1025822
16:00+15˚e8134010 0.0 1024740
19:00+12˚e816470 0.0 1026571
22:00+11˚e1018500 0.0 1026664
4 december, fri
fri401:00+11˚e1019500 0.0 1026732
04:00+10˚e919510 0.0 1026746
07:00+10˚e818520 0.0 1025706
10:00+11˚e1017490 0.0 1025810
13:00+14˚e1116400 0.0 1023909
16:00+14˚e1116390 0.0 1022824
19:00+11˚e1118430 0.0 1023668
22:00+11˚e1119460 0.0 1024712
5 december, sat
sat501:00+10˚e1019470 0.0 1024728
04:00+9˚e918500 0.0 1024697
07:00+9˚e818510 0.0 1023658
10:00+10˚e917480 0.0 1023746
13:00+14˚e1116380 0.0 1021859
16:00+14˚e1016370 0.0 1020803
19:00+11˚e1017420 0.0 1022656
22:00+11˚e9184528 0.0 1023708
6 december, sun
sun601:00+10˚e9184693 0.0 1023724
04:00+10˚e9174796 0.0 1023668
07:00+9˚e7165072 0.0 1023605
10:00+10˚e8144754 0.0 1023637
13:00+13˚e9133825 0.0 1022799
16:00+13˚e9133937 0.0 1021821
19:00+10˚e8164411 0.0 1022616
22:00+9˚e8164925 0.0 1023660
7 december, mon
mon701:00+9˚e9174746 0.0 1024760
04:00+9˚e10174566 0.0 1024866
07:00+9˚e10184482 0.0 1025821
10:00+9˚e12174287 0.0 1025951
13:00+12˚e13173556 0.0 10231022
16:00+11˚e12173528 0.0 1023919
19:00+9˚e12193835 0.0 1025790
22:00+8˚e13204118 0.0 1025794